User: anonymous   Login
Location: Unspecified
(0.0000°N, 0.0000°E)
Time: 21:27:52
(UTC+00:00)
Language:

TBA - TO BE ASSIGNED - Orbit

View from above orbital plane
View from above orbital plane
View from above satellite
View from above satellite

Ground track
Ground track

The orbit is defined by the following mean orbital elements,

1 68064U          26145.58335647 +.00000000 +00000-0 +17566-2 0 00003
2 68064  53.1605  50.6191 0001181  86.7278 158.4049 15.34356092    06
Epoch (UTC): 25 May 2026 14:00:01
Eccentricity: 0.0001181
inclination: 53.1605°
perigee height: 462 km
apogee height: 464 km
right ascension of ascending node: 50.6191°
argument of perigee: 86.7278°
revolutions per day: 15.34356092
mean anomaly at epoch: 158.4049°

The dashed part of the orbit path shows where the satellite is in the earth's shadow,  

DLR